Location: Ash Swamp
(41.5170°N, 74.6157°W)
Time: 17:22:18
(UTC+00:00)

Meteor 1-11 Rocket - Pass Details

Date: 14 July 2020
Orbit: 831 x 915 km, 81.2° (Epoch: 04 August)

Event Time Altitude Azimuth Distance (km) Brightness Sun altitude
Exits shadow 07:11:46 36° 185° (S) 1,286 4.2 -20.3°
Maximum altitude 07:14:06 86° 98° (E) 840 3.6 -20.1°
Drops below altitude 10° 07:19:39 10° 11° (N) 2,449 7.1 -19.5°
Sets 07:22:04 0° 11° (N) 3,390 8.1 -19.3°
